WetterOnline ( http://www.wetteronline.de )

Wetter aktuell Inchenhofen

Aktuelles Wetter: Augsburg/Mühlhausen (477m)

6-stündlich | Neueste Meldungen
Ortszeit Temperatur Wetter
Di, 26.03. 7:00 -1.7° C bewölkt
Di, 26.03. 1:00 1.5° C bewölkt
Mo, 25.03. 19:00 3.0° C wolkig
Mo, 25.03. 13:00 7.0° C bewölkt
Mo, 25.03. 7:00 4.4° C leicht bewölkt
Mo, 25.03. 1:00 4.5° C bewölkt
So, 24.03. 19:00 11.4° C bewölkt
So, 24.03. 13:00 16.3° C wolkenlos
Ortszeit Temperatur Wetter
Di, 26.03. 7:00 -1.7° C bewölkt
Di, 26.03. 6:50 -1.7° C bewölkt
Di, 26.03. 6:40 -2.1° C bewölkt
Di, 26.03. 6:30 -2.7° C wolkig
Di, 26.03. 6:20 -2.7° C wolkig
Di, 26.03. 6:10 -2.8° C wolkig
Di, 26.03. 6:00 -2.7° C leicht bewölkt
Di, 26.03. 5:30 -2.4° C fast wolkenlos
Di, 26.03. 5:00 -0.7° C fast wolkenlos
Di, 26.03. 4:30 -0.8° C wolkig
Di, 26.03. 4:00 -0.3° C fast wolkenlos
Ortszeit Relative Feuchte Sichtweite
Di, 26.03. 7:00 95% 5.0 km
Di, 26.03. 1:00 88% 14 km
Mo, 25.03. 19:00 81% 55 km
Mo, 25.03. 13:00 51% 35 km
Mo, 25.03. 7:00 70% 11 km
Mo, 25.03. 1:00 91% 3.1 km
So, 24.03. 19:00 66% 5.0 km
So, 24.03. 13:00 46% 8 km
Ortszeit Relative Feuchte Sichtweite
Di, 26.03. 7:00 95% 5.0 km
Di, 26.03. 6:50 95% -
Di, 26.03. 6:40 95% -
Di, 26.03. 6:30 96% 6 km
Di, 26.03. 6:20 96% -
Di, 26.03. 6:10 96% -
Di, 26.03. 6:00 96% 4.8 km
Di, 26.03. 5:30 96% 6 km
Di, 26.03. 5:00 96% 5.0 km
Di, 26.03. 4:30 94% 8 km
Di, 26.03. 4:00 94% 10 km
Ortszeit Niederschlagsmenge Niederschlagsart
Di, 26.03. 7:00 0.1 l/m2 in 12 Std. Schnee
Di, 26.03. 1:00 0.1 l/m2 in 6 Std. Schnee, Regen
Mo, 25.03. 19:00 0.6 l/m2 in 12 Std. Schnee, Regen
Mo, 25.03. 13:00 0.1 l/m2 in 6 Std. Regen
Mo, 25.03. 7:00 0.1 l/m2 in 12 Std. Regen
Mo, 25.03. 1:00 0.0 l/m2 in 6 Std. -
So, 24.03. 19:00 0.0 l/m2 in 12 Std. -
So, 24.03. 13:00 0.0 l/m2 in 6 Std. -
Ortszeit Niederschlagsmenge Niederschlagsart
Di, 26.03. 7:00 0.0 l/m2 in 1 Std. Schnee
Di, 26.03. 6:50 keine Meldung -
Di, 26.03. 6:40 keine Meldung -
Di, 26.03. 6:30 0.0 l/m2 in 1 Std. -
Di, 26.03. 6:20 keine Meldung -
Di, 26.03. 6:10 keine Meldung -
Di, 26.03. 6:00 0.0 l/m2 in 1 Std. -
Di, 26.03. 5:30 0.0 l/m2 in 1 Std. -
Di, 26.03. 5:00 0.0 l/m2 in 1 Std. -
Di, 26.03. 4:30 0.0 l/m2 in 1 Std. -
Di, 26.03. 4:00 0.0 l/m2 in 1 Std. Schnee
Ortszeit Stärke Spitze Richtung
km/h Bft. km/h Grad Sektor
Di, 26.03. 7:00 4 1 14 100° O
Di, 26.03. 1:00 9 2 31 300° NW
Mo, 25.03. 19:00 18 3 68 310° NW
Mo, 25.03. 13:00 35 5 50 270° W
Mo, 25.03. 7:00 18 3 29 330° NW
Mo, 25.03. 1:00 4 1 29 160° S
So, 24.03. 19:00 22 4 36 360° N
So, 24.03. 13:00 7 2 14 330° NW
Ortszeit Stärke Spitze Richtung
km/h Bft. km/h Grad Sektor
Di, 26.03. 7:00 4 1 4 100° O
Di, 26.03. 6:50 4 1 - 100° O
Di, 26.03. 6:40 4 1 - 100° O
Di, 26.03. 6:30 4 1 4 60° NO
Di, 26.03. 6:20 4 1 - 60° NO
Di, 26.03. 6:10 4 1 - 70° O
Di, 26.03. 6:00 4 1 7 10° N
Di, 26.03. 5:30 0 0 4 - -
Di, 26.03. 5:00 4 1 7 200° S
Di, 26.03. 4:30 0 0 4 - -
Di, 26.03. 4:00 0 0 11 - -
Ortszeit Untergrenze Bedeckung Gattung
total tief tief mittel hoch
Di, 26.03. 7:00 510 m 7/8 7/8 - - -
Di, 26.03. 1:00 300 m 7/8 7/8 - - -
Mo, 25.03. 19:00 510 m 6/8 6/8 - - -
Mo, 25.03. 13:00 1290 m 7/8 7/8 - - -
Mo, 25.03. 7:00 660 m 3/8 3/8 - - -
Mo, 25.03. 1:00 1500 m 7/8 7/8 - - -
So, 24.03. 19:00 1800 m 7/8 7/8 - - -
So, 24.03. 13:00 - 0/8 0/8 - - -
Ortszeit Bedeckungsgrad in Achtel und Wolkenuntergrenze
Di, 26.03. 7:00 3(510m) 7(900m)
Di, 26.03. 6:50 3(510m) 7(900m)
Di, 26.03. 6:40 3(510m) 7(870m)
Di, 26.03. 6:30 2(480m) 6(870m)
Di, 26.03. 6:20 2(480m) 6(870m)
Di, 26.03. 6:10 1(240m) 5(900m)
Di, 26.03. 6:00 2(270m) 4(960m)
Di, 26.03. 5:30 1(870m)
Di, 26.03. 5:00 3(870m)
Di, 26.03. 4:30 5(930m)
Di, 26.03. 4:00 1(900m)
Ortszeit Luftdruck NN (hPa) Tendenz (hPa in 3 Std.)
Di, 26.03. 7:00 1031 + 1,8
Di, 26.03. 1:00 1027 + 1,1
Mo, 25.03. 19:00 1024 + 2,0
Mo, 25.03. 13:00 1020 - 1,0
Mo, 25.03. 7:00 1022 + 0,2
Mo, 25.03. 1:00 1022 - 1,6
So, 24.03. 19:00 1021 + 1,2
So, 24.03. 13:00 1021 - 1,7
Ortszeit Luftdruck NN (hPa) Tendenz (hPa in 3 Std.)
Di, 26.03. 7:00 1031 + 1,8
Di, 26.03. 6:50 1031 keine Meldung
Di, 26.03. 6:40 1031 keine Meldung
Di, 26.03. 6:30 1031 + 1,7
Di, 26.03. 6:20 1031 keine Meldung
Di, 26.03. 6:10 1031 keine Meldung
Di, 26.03. 6:00 1031 + 1,7
Di, 26.03. 5:30 1030 + 1,3
Di, 26.03. 5:00 1029 + 1,4
Di, 26.03. 4:30 1029 + 1,5
Di, 26.03. 4:00 1029 + 0,9
Ortszeit Schneehöhe (cm)
Di, 26.03. 7:00 1
Di, 26.03. 1:00 -
Mo, 25.03. 19:00 0
Mo, 25.03. 13:00 0
Mo, 25.03. 7:00 0
Mo, 25.03. 1:00 0
So, 24.03. 19:00 0
So, 24.03. 13:00 0
Ortszeit Schneehöhe (cm)
Di, 26.03. 7:00 1
Di, 26.03. 6:50 1
Di, 26.03. 6:40 1
Di, 26.03. 6:30 1
Di, 26.03. 6:20 1
Di, 26.03. 6:10 1
Di, 26.03. 6:00 1
Di, 26.03. 5:30 1
Di, 26.03. 5:00 1
Di, 26.03. 4:30 1
Di, 26.03. 4:00 1
Link zu dieser Seite / Seite empfehlen

Das Wetter in ...